{"data":{"norad_id":58520,"epoch":"2026-05-25T01:04:40.605024Z","epoch_age_seconds":64992,"freshness":"FRESH","line1":"1 58520U 23191N   26145.04491441  .00006155  00000+0  23297-3 0  9993","line2":"2 58520  43.0047  31.8103 0001348 269.7615  90.3082 15.27583517137151","mean_motion":15.27583517,"eccentricity":0.0001348,"inclination_deg":43.0047,"raan_deg":31.8103,"arg_perigee_deg":269.7615,"mean_anomaly_deg":90.3082,"bstar":0.00023297,"rev_number":13715,"period_min":94.266531680572,"perigee_km":482.11367843048,"apogee_km":483.96345136277,"semimajor_km":6861.1755648966,"source":"CELESTRAK","updated_at":"2026-05-25T13:38:18.657716Z"}}